sat.trackr.live / text

‹ back to catalog

YAM-17

NORAD 69884 · 2026-156R

PAYLOAD ACTIVE UNKNOWN

§ Identity

Operator
Country
US
Launch date
2026-07-07
Launch site
AFWTR
Launch vehicle
Mass (kg)
RCS (m²)

External: N2YO · Heavens-Above · Gunter

§ Orbital elements

Epoch: 2026-09-19T23:26:01.489632Z

Period
96.61 min
Inclination
97.5583°
Eccentricity
0.0001861
Mean motion
14.90463377 rev/d
Perigee alt
595.2 km
Apogee alt
597.8 km
Semi-major
6,974.6 km
B*
9.1964e-5
RAAN
160.9296°
Arg perigee
68.2817°
Mean anomaly
291.8600°
Rev number
1,112

§ Raw data

YAM-171 69884U 26156R   26262.97640613  .00000845  00000+0  91964-4 0  99982 69884  97.5583 160.9296 0001861  68.2817 291.8600 14.90463377 11120

JSON: /api/v1/satellites/69884 · /tle

For live sub-satellite position, see the globe view (requires WebGL).

§ Visibility from observer

Set your observer location to see the next 7 days of passes ≥ 10°. The values pass through the URL so the page stays shareable.

No JS? Fill the form by hand. The geolocation button needs JavaScript.